Time,TemperatureF,DewpointF,PressureIn,WindDirection,WindDirectionDegrees,WindSpeedMPH,WindSpeedGustMPH,Humidity,HourlyPrecipIn,Conditions,Clouds,dailyrainin,SolarRadiationWatts/m^2,SoftwareType,DateUTC
2013-04-01 00:01:00,47.0,25.0,-100.00,WSW,249,11.0,12.0,41,-99.99,,,-99.99,0.000000,,2013-04-01 06:01:00,
2013-04-01 00:12:00,46.0,27.0,-100.00,WSW,250,8.0,12.0,47,-99.99,,,-99.99,0.000000,,2013-04-01 06:12:00,
2013-04-01 00:22:00,46.0,27.0,-100.00,WSW,250,8.0,12.0,47,-99.99,,,-99.99,0.000000,,2013-04-01 06:22:00,
2013-04-01 00:32:00,45.0,27.0,-100.00,SW,230,7.0,12.0,49,-99.99,,,-99.99,0.000000,,2013-04-01 06:32:00,
2013-04-01 00:42:00,44.0,27.0,-100.00,WSW,237,8.0,10.0,50,-99.99,,,-99.99,0.000000,,2013-04-01 06:42:00,
2013-04-01 00:52:00,44.0,27.0,-100.00,SW,233,5.0,7.0,52,-99.99,,,-99.99,0.000000,,2013-04-01 06:52:00,
2013-04-01 01:02:00,44.0,28.0,-100.00,WSW,240,5.0,7.0,52,-99.99,,,-99.99,0.000000,,2013-04-01 07:02:00,
2013-04-01 01:12:00,45.0,28.0,-100.00,NW,310,3.0,6.0,50,-99.99,,,-99.99,0.000000,,2013-04-01 07:12:00,
2013-04-01 01:22:00,44.0,28.0,-100.00,East,84,5.0,7.0,53,-99.99,,,-99.99,0.000000,,2013-04-01 07:22:00,
2013-04-01 01:32:00,44.0,27.0,-100.00,East,100,3.0,8.0,52,-99.99,,,-99.99,0.000000,,2013-04-01 07:32:00,
2013-04-01 01:42:00,44.0,26.0,-100.00,NNE,33,1.0,4.0,49,-99.99,,,-99.99,0.000000,,2013-04-01 07:42:00,
2013-04-01 01:52:00,44.0,27.0,-100.00,SW,224,13.0,16.0,50,-99.99,,,-99.99,0.000000,,2013-04-01 07:52:00,
2013-04-01 02:02:00,44.0,30.0,-100.00,NNE,27,5.0,13.0,57,-99.99,,,-99.99,0.000000,,2013-04-01 08:02:00,
2013-04-01 02:12:00,43.0,30.0,-100.00,NNE,22,7.0,9.0,58,-99.99,,,-99.99,0.000000,,2013-04-01 08:12:00,
2013-04-01 02:22:00,42.0,31.0,-100.00,NE,40,12.0,12.0,64,-99.99,,,-99.99,0.000000,,2013-04-01 08:22:00,
2013-04-01 02:32:00,41.0,31.0,-100.00,East,81,5.0,13.0,65,-99.99,,,-99.99,0.000000,,2013-04-01 08:32:00,
2013-04-01 02:43:00,41.0,31.0,-100.00,ENE,62,6.0,9.0,68,-99.99,,,-99.99,0.000000,,2013-04-01 08:43:00,
2013-04-01 02:52:00,40.0,31.0,-100.00,ENE,62,7.0,8.0,70,-99.99,,,-99.99,0.000000,,2013-04-01 08:52:00,
2013-04-01 03:02:00,41.0,31.0,-100.00,NE,47,9.0,10.0,66,-99.99,,,-99.99,0.000000,,2013-04-01 09:02:00,
2013-04-01 03:12:00,41.0,30.0,-100.00,NE,51,8.0,10.0,64,-99.99,,,-99.99,0.000000,,2013-04-01 09:12:00,
2013-04-01 03:22:00,42.0,30.0,-100.00,NE,51,8.0,10.0,61,-99.99,,,-99.99,0.000000,,2013-04-01 09:22:00,
2013-04-01 03:33:00,41.0,29.0,-100.00,ENE,60,8.0,11.0,62,-99.99,,,-99.99,0.000000,,2013-04-01 09:33:00,
2013-04-01 03:42:00,42.0,29.0,-100.00,NE,52,9.0,11.0,61,-99.99,,,-99.99,0.000000,,2013-04-01 09:42:00,
2013-04-01 03:52:00,41.0,29.0,-100.00,ENE,71,6.0,10.0,62,-99.99,,,-99.99,0.000000,,2013-04-01 09:52:00,
2013-04-01 04:02:00,40.0,29.0,-100.00,ENE,68,9.0,10.0,65,-99.99,,,-99.99,0.000000,,2013-04-01 10:02:00,
2013-04-01 04:12:00,40.0,30.0,-100.00,ENE,61,7.0,9.0,65,-99.99,,,-99.99,0.000000,,2013-04-01 10:12:00,
2013-04-01 04:22:00,40.0,30.0,-100.00,ENE,74,6.0,9.0,65,-99.99,,,-99.99,0.000000,,2013-04-01 10:22:00,
2013-04-01 04:33:00,41.0,29.0,-100.00,East,82,3.0,7.0,61,-99.99,,,-99.99,0.000000,,2013-04-01 10:33:00,
2013-04-01 04:42:00,41.0,29.0,-100.00,SSW,196,3.0,5.0,63,-99.99,,,-99.99,0.000000,,2013-04-01 10:42:00,
2013-04-01 04:52:00,41.0,30.0,-100.00,SW,215,3.0,7.0,63,-99.99,,,-99.99,0.000000,,2013-04-01 10:52:00,
2013-04-01 05:02:00,41.0,30.0,-100.00,West,271,4.0,7.0,62,-99.99,,,-99.99,0.000000,,2013-04-01 11:02:00,
2013-04-01 05:12:00,41.0,30.0,-100.00,SSW,208,3.0,6.0,65,-99.99,,,-99.99,0.000000,,2013-04-01 11:12:00,
2013-04-01 05:22:00,41.0,30.0,-100.00,South,191,7.0,11.0,65,-99.99,,,-99.99,0.000000,,2013-04-01 11:22:00,
2013-04-01 05:32:00,41.0,31.0,-100.00,ESE,105,2.0,13.0,69,-99.99,,,-99.99,0.000000,,2013-04-01 11:32:00,
2013-04-01 05:42:00,41.0,32.0,-100.00,NNE,23,4.0,6.0,71,-99.99,,,-99.99,0.000000,,2013-04-01 11:42:00,
2013-04-01 05:52:00,40.0,31.0,-100.00,East,90,3.0,5.0,71,-99.99,,,-99.99,0.000000,,2013-04-01 11:52:00,
2013-04-01 06:02:00,40.0,32.0,-100.00,NE,48,9.0,10.0,74,-99.99,,,-99.99,0.000000,,2013-04-01 12:02:00,
2013-04-01 06:12:00,39.0,33.0,-100.00,NE,55,9.0,10.0,77,-99.99,,,-99.99,0.000000,,2013-04-01 12:12:00,
2013-04-01 06:22:00,38.0,32.0,-100.00,ENE,64,6.0,8.0,78,-99.99,,,-99.99,0.000000,,2013-04-01 12:22:00,
2013-04-01 06:42:00,39.0,31.0,-100.00,East,79,6.0,7.0,74,-99.99,,,-99.99,0.000000,,2013-04-01 12:42:00,
2013-04-01 06:52:00,39.0,31.0,-100.00,ENE,68,6.0,6.0,73,-99.99,,,-99.99,0.000000,,2013-04-01 12:52:00,
2013-04-01 07:02:00,39.0,32.0,-100.00,North,0,0.0,5.0,73,-99.99,,,-99.99,0.000000,,2013-04-01 13:02:00,
2013-04-01 07:12:00,41.0,31.0,-100.00,ENE,60,4.0,5.0,68,-99.99,,,-99.99,0.000000,,2013-04-01 13:12:00,
2013-04-01 07:22:00,41.0,31.0,-100.00,WSW,255,6.0,6.0,66,-99.99,,,-99.99,0.000000,,2013-04-01 13:22:00,
2013-04-01 07:32:00,40.0,31.0,-100.00,SW,216,0.0,7.0,68,-99.99,,,-99.99,0.130000,,2013-04-01 13:32:00,
2013-04-01 07:42:00,40.0,31.0,-100.00,East,82,4.0,4.0,70,-99.99,,,-99.99,0.920000,,2013-04-01 13:42:00,
2013-04-01 07:52:00,38.0,32.0,-100.00,ENE,65,5.0,5.0,77,-99.99,,,-99.99,6.330000,,2013-04-01 13:52:00,
2013-04-01 08:02:00,38.0,32.0,-100.00,East,87,2.0,6.0,79,-99.99,,,-99.99,12.590000,,2013-04-01 14:02:00,
2013-04-01 08:12:00,38.0,32.0,-100.00,ENE,67,10.0,11.0,80,-99.99,,,-99.99,9.870000,,2013-04-01 14:12:00,
2013-04-01 08:22:00,38.0,32.0,-100.00,ENE,74,8.0,14.0,78,-99.99,,,-99.99,17.780001,,2013-04-01 14:22:00,
2013-04-01 08:32:00,38.0,32.0,-100.00,East,82,3.0,11.0,80,-99.99,,,-99.99,12.000000,,2013-04-01 14:32:00,
2013-04-01 08:42:00,37.0,32.0,-100.00,East,84,4.0,9.0,82,-99.99,,,-99.99,8.420000,,2013-04-01 14:42:00,
2013-04-01 08:52:00,38.0,32.0,-100.00,SSE,152,2.0,13.0,80,-99.99,,,-99.99,12.960000,,2013-04-01 14:52:00,
2013-04-01 09:02:00,37.0,33.0,-100.00,ENE,60,11.0,13.0,84,-99.99,,,-99.99,30.410000,,2013-04-01 15:02:00,
2013-04-01 09:12:00,38.0,34.0,-100.00,ENE,59,7.0,11.0,84,-99.99,,,-99.99,59.509998,,2013-04-01 15:12:00,
2013-04-01 09:22:00,37.0,32.0,-100.00,ENE,69,8.0,11.0,82,-99.99,,,-99.99,90.699997,,2013-04-01 15:22:00,
2013-04-01 09:33:00,38.0,33.0,-100.00,ENE,63,9.0,10.0,82,-99.99,,,-99.99,116.400002,,2013-04-01 15:33:00,
2013-04-01 09:43:00,38.0,33.0,-100.00,ENE,66,13.0,14.0,81,-99.99,,,-99.99,160.500000,,2013-04-01 15:43:00,
2013-04-01 09:50:00,39.0,33.0,-100.00,ENE,63,15.0,16.0,80,-99.99,,,-99.99,352.600006,,2013-04-01 15:50:00,
2013-04-01 09:53:00,38.0,33.0,-100.00,ENE,64,14.0,15.0,83,-99.99,,,-99.99,219.399994,,2013-04-01 15:53:00,
2013-04-01 10:02:00,38.0,33.0,-100.00,ENE,67,14.0,18.0,82,-99.99,,,-99.99,284.200012,,2013-04-01 16:02:00,
2013-04-01 10:10:00,41.0,33.0,-100.00,ENE,67,13.0,16.0,75,-99.99,,,-99.99,519.400024,,2013-04-01 16:10:00,
2013-04-01 10:12:00,38.0,33.0,-100.00,ENE,65,16.0,18.0,81,-99.99,,,-99.99,358.799988,,2013-04-01 16:12:00,
2013-04-01 10:22:00,39.0,33.0,-100.00,ENE,63,15.0,16.0,80,-99.99,,,-99.99,352.600006,,2013-04-01 16:22:00,
2013-04-01 10:32:00,39.0,33.0,-100.00,ENE,63,15.0,16.0,80,-99.99,,,-99.99,352.600006,,2013-04-01 16:32:00,
2013-04-01 10:42:00,39.0,33.0,-100.00,ENE,63,15.0,16.0,80,-99.99,,,-99.99,352.600006,,2013-04-01 16:42:00,
2013-04-01 11:03:00,41.0,33.0,-100.00,ENE,67,13.0,16.0,75,-99.99,,,-99.99,519.400024,,2013-04-01 17:03:00,
2013-04-01 11:32:00,42.0,34.0,-100.00,ENE,70,12.0,16.0,72,-99.99,,,-99.99,316.200012,,2013-04-01 17:32:00,
2013-04-01 11:42:00,44.0,34.0,-100.00,ENE,61,14.0,18.0,67,-99.99,,,-99.99,353.100006,,2013-04-01 17:42:00,
2013-04-01 11:52:00,43.0,32.0,-100.00,ENE,67,12.0,16.0,65,-99.99,,,-99.99,390.000000,,2013-04-01 17:52:00,
2013-04-01 12:02:00,43.0,32.0,-100.00,ENE,67,9.0,15.0,64,-99.99,,,-99.99,278.000000,,2013-04-01 18:02:00,
2013-04-01 12:11:00,43.0,33.0,-100.00,ENE,69,7.0,11.0,66,-99.99,,,-99.99,162.899994,,2013-04-01 18:11:00,
2013-04-01 12:22:00,43.0,33.0,-100.00,NE,47,8.0,11.0,67,-99.99,,,-99.99,205.699997,,2013-04-01 18:22:00,
2013-04-01 12:32:00,43.0,33.0,-100.00,ENE,61,9.0,11.0,66,-99.99,,,-99.99,300.899994,,2013-04-01 18:32:00,
2013-04-01 12:42:00,43.0,33.0,-100.00,ENE,63,7.0,10.0,65,-99.99,,,-99.99,299.899994,,2013-04-01 18:42:00,
2013-04-01 12:52:00,44.0,33.0,-100.00,ENE,63,8.0,11.0,64,-99.99,,,-99.99,159.300003,,2013-04-01 18:52:00,
2013-04-01 13:03:00,43.0,33.0,-100.00,SSW,199,9.0,14.0,66,-99.99,,,-99.99,49.599998,,2013-04-01 19:03:00,
2013-04-01 13:12:00,38.0,32.0,-100.00,WSW,247,18.0,20.0,79,-99.99,,,-99.99,19.080000,,2013-04-01 19:12:00,
2013-04-01 13:22:00,36.0,32.0,-100.00,SSW,210,15.0,21.0,86,-99.99,,,-99.99,14.720000,,2013-04-01 19:22:00,
2013-04-01 13:32:00,35.0,32.0,-100.00,SSW,201,5.0,19.0,87,-99.99,,,-99.99,15.110000,,2013-04-01 19:32:00,
2013-04-01 13:42:00,35.0,32.0,-100.00,SW,226,4.0,15.0,88,-99.99,,,-99.99,26.290001,,2013-04-01 19:42:00,
2013-04-01 13:52:00,35.0,32.0,-100.00,West,279,6.0,11.0,88,-99.99,,,-99.99,36.849998,,2013-04-01 19:52:00,
2013-04-01 14:02:00,35.0,32.0,-100.00,West,264,8.0,15.0,88,-99.99,,,-99.99,52.070000,,2013-04-01 20:02:00,
2013-04-01 14:12:00,36.0,32.0,-100.00,WSW,256,10.0,15.0,87,-99.99,,,-99.99,69.820000,,2013-04-01 20:12:00,
2013-04-01 14:22:00,36.0,32.0,-100.00,West,268,4.0,12.0,88,-99.99,,,-99.99,87.500000,,2013-04-01 20:22:00,
2013-04-01 14:32:00,36.0,33.0,-100.00,North,0,0.0,6.0,88,-99.99,,,-99.99,121.199997,,2013-04-01 20:32:00,
2013-04-01 14:42:00,37.0,33.0,-100.00,North,6,2.0,4.0,88,-99.99,,,-99.99,176.399994,,2013-04-01 20:42:00,
2013-04-01 14:51:00,37.0,34.0,-100.00,East,89,4.0,6.0,86,-99.99,,,-99.99,231.600006,,2013-04-01 20:51:00,
2013-04-01 15:02:00,38.0,35.0,-100.00,ENE,64,5.0,10.0,89,-99.99,,,-99.99,263.000000,,2013-04-01 21:02:00,
2013-04-01 15:11:00,38.0,34.0,-100.00,NE,47,9.0,11.0,86,-99.99,,,-99.99,284.299988,,2013-04-01 21:11:00,
2013-04-01 15:22:00,38.0,35.0,-100.00,ENE,58,7.0,12.0,86,-99.99,,,-99.99,292.899994,,2013-04-01 21:22:00,
2013-04-01 15:32:00,38.0,34.0,-100.00,ENE,57,12.0,13.0,84,-99.99,,,-99.99,334.700012,,2013-04-01 21:32:00,
2013-04-01 15:43:00,38.0,34.0,-100.00,NE,35,10.0,15.0,85,-99.99,,,-99.99,360.899994,,2013-04-01 21:43:00,
2013-04-01 15:52:00,39.0,34.0,-100.00,ENE,68,9.0,11.0,82,-99.99,,,-99.99,393.100006,,2013-04-01 21:52:00,
2013-04-01 16:02:00,39.0,33.0,-100.00,East,83,4.0,10.0,79,-99.99,,,-99.99,298.899994,,2013-04-01 22:02:00,
2013-04-01 16:12:00,39.0,34.0,-100.00,ENE,68,7.0,8.0,82,-99.99,,,-99.99,220.600006,,2013-04-01 22:12:00,
2013-04-01 16:22:00,39.0,34.0,-100.00,East,82,6.0,9.0,82,-99.99,,,-99.99,187.600006,,2013-04-01 22:22:00,
2013-04-01 16:33:00,39.0,34.0,-100.00,ENE,60,8.0,10.0,82,-99.99,,,-99.99,214.300003,,2013-04-01 22:33:00,
2013-04-01 16:42:00,39.0,35.0,-100.00,ENE,64,8.0,10.0,83,-99.99,,,-99.99,264.500000,,2013-04-01 22:42:00,
2013-04-01 16:52:00,39.0,34.0,-100.00,ENE,64,14.0,17.0,82,-99.99,,,-99.99,308.299988,,2013-04-01 22:52:00,
2013-04-01 17:02:00,39.0,35.0,-100.00,ENE,61,11.0,16.0,84,-99.99,,,-99.99,333.299988,,2013-04-01 23:02:00,
2013-04-01 17:12:00,39.0,35.0,-100.00,ENE,61,12.0,13.0,85,-99.99,,,-99.99,392.200012,,2013-04-01 23:12:00,
2013-04-01 17:22:00,40.0,35.0,-100.00,ENE,62,13.0,15.0,82,-99.99,,,-99.99,688.000000,,2013-04-01 23:22:00,
2013-04-01 17:32:00,39.0,34.0,-100.00,ENE,63,12.0,17.0,84,-99.99,,,-99.99,332.299988,,2013-04-01 23:32:00,
2013-04-01 17:42:00,38.0,34.0,-100.00,ENE,60,12.0,16.0,83,-99.99,,,-99.99,280.000000,,2013-04-01 23:42:00,
2013-04-01 17:52:00,38.0,34.0,-100.00,ENE,67,11.0,13.0,84,-99.99,,,-99.99,228.199997,,2013-04-01 23:52:00,
2013-04-01 18:02:00,38.0,34.0,-100.00,ENE,64,13.0,14.0,85,-99.99,,,-99.99,200.600006,,2013-04-02 00:02:00,
2013-04-01 18:11:00,38.0,34.0,-100.00,ENE,66,10.0,13.0,84,-99.99,,,-99.99,177.300003,,2013-04-02 00:11:00,
2013-04-01 18:22:00,38.0,34.0,-100.00,ENE,67,9.0,12.0,86,-99.99,,,-99.99,128.000000,,2013-04-02 00:22:00,
2013-04-01 18:32:00,38.0,34.0,-100.00,ENE,62,10.0,12.0,83,-99.99,,,-99.99,88.300003,,2013-04-02 00:32:00,
2013-04-01 18:42:00,39.0,34.0,-100.00,ENE,64,9.0,12.0,83,-99.99,,,-99.99,64.949997,,2013-04-02 00:42:00,
2013-04-01 18:52:00,39.0,34.0,-100.00,ENE,64,9.0,11.0,82,-99.99,,,-99.99,46.900002,,2013-04-02 00:52:00,
2013-04-01 19:01:00,39.0,33.0,-100.00,ENE,64,5.0,9.0,81,-99.99,,,-99.99,45.869999,,2013-04-02 01:01:00,
2013-04-01 19:11:00,39.0,34.0,-100.00,ENE,66,2.0,7.0,81,-99.99,,,-99.99,31.559999,,2013-04-02 01:11:00,
2013-04-01 19:22:00,38.0,33.0,-100.00,SSW,210,2.0,4.0,81,-99.99,,,-99.99,28.500000,,2013-04-02 01:22:00,
2013-04-01 19:32:00,37.0,32.0,-100.00,SW,222,8.0,10.0,81,-99.99,,,-99.99,19.809999,,2013-04-02 01:32:00,
2013-04-01 19:42:00,36.0,32.0,-100.00,SW,220,8.0,11.0,87,-99.99,,,-99.99,12.070000,,2013-04-02 01:42:00,
2013-04-01 19:52:00,36.0,33.0,-100.00,SW,219,6.0,9.0,88,-99.99,,,-99.99,8.100000,,2013-04-02 01:52:00,
2013-04-01 20:02:00,35.0,33.0,-100.00,SW,221,7.0,7.0,89,-99.99,,,-99.99,4.040000,,2013-04-02 02:02:00,
2013-04-01 20:12:00,35.0,33.0,-100.00,WSW,242,5.0,8.0,90,-99.99,,,-99.99,2.990000,,2013-04-02 02:12:00,
2013-04-01 20:22:00,35.0,33.0,-100.00,WSW,258,5.0,7.0,90,-99.99,,,-99.99,0.910000,,2013-04-02 02:22:00,
2013-04-01 20:32:00,35.0,33.0,-100.00,West,264,6.0,8.0,91,-99.99,,,-99.99,0.310000,,2013-04-02 02:32:00,
2013-04-01 20:42:00,35.0,33.0,-100.00,West,268,5.0,7.0,91,-99.99,,,-99.99,0.140000,,2013-04-02 02:42:00,
2013-04-01 20:52:00,35.0,33.0,-100.00,West,271,4.0,6.0,91,-99.99,,,-99.99,0.000000,,2013-04-02 02:52:00,
2013-04-01 21:12:00,34.0,32.0,-100.00,WSW,245,6.0,7.0,91,-99.99,,,-99.99,0.000000,,2013-04-02 03:12:00,
2013-04-01 21:22:00,33.0,31.0,-100.00,SW,231,5.0,7.0,91,-99.99,,,-99.99,0.000000,,2013-04-02 03:22:00,
2013-04-01 21:33:00,32.0,30.0,-100.00,SW,218,6.0,7.0,92,-99.99,,,-99.99,0.000000,,2013-04-02 03:33:00,
2013-04-01 21:43:00,32.0,30.0,-100.00,SW,223,6.0,7.0,93,-99.99,,,-99.99,0.020000,,2013-04-02 03:43:00,
2013-04-01 21:52:00,32.0,30.0,-100.00,SW,227,5.0,7.0,93,-99.99,,,-99.99,0.010000,,2013-04-02 03:52:00,
2013-04-01 22:02:00,32.0,31.0,-100.00,SW,232,4.0,5.0,94,-99.99,,,-99.99,0.070000,,2013-04-02 04:02:00,
2013-04-01 22:12:00,32.0,31.0,-100.00,SW,217,2.0,4.0,94,-99.99,,,-99.99,0.080000,,2013-04-02 04:12:00,
2013-04-01 22:22:00,32.0,30.0,-100.00,SW,221,2.0,3.0,94,-99.99,,,-99.99,0.110000,,2013-04-02 04:22:00,
2013-04-01 22:32:00,32.0,30.0,-100.00,SW,214,4.0,5.0,94,-99.99,,,-99.99,0.070000,,2013-04-02 04:32:00,
2013-04-01 22:42:00,32.0,30.0,-100.00,SW,226,5.0,6.0,94,-99.99,,,-99.99,0.030000,,2013-04-02 04:42:00,
2013-04-01 22:52:00,32.0,30.0,-100.00,SW,222,5.0,6.0,94,-99.99,,,-99.99,0.100000,,2013-04-02 04:52:00,
2013-04-01 23:02:00,32.0,30.0,-100.00,SW,232,7.0,7.0,94,-99.99,,,-99.99,0.120000,,2013-04-02 05:02:00,
2013-04-01 23:12:00,32.0,30.0,-100.00,WSW,237,6.0,7.0,94,-99.99,,,-99.99,0.050000,,2013-04-02 05:12:00,
2013-04-01 23:22:00,32.0,30.0,-100.00,SW,215,6.0,7.0,94,-99.99,,,-99.99,0.110000,,2013-04-02 05:22:00,
2013-04-01 23:32:00,32.0,30.0,-100.00,SW,225,5.0,7.0,94,-99.99,,,-99.99,0.120000,,2013-04-02 05:32:00,
2013-04-01 23:42:00,32.0,30.0,-100.00,WSW,240,6.0,8.0,94,-99.99,,,-99.99,0.110000,,2013-04-02 05:42:00,
2013-04-01 23:52:00,32.0,30.0,-100.00,SSW,213,5.0,8.0,94,-99.99,,,-99.99,0.100000,,2013-04-02 05:52:00,